DW9711 Weather Reports


time (UTC)temp
F
wind
direction
speed
knots
gust
knots
rain 1hr
in
rain 24hr
in
rain mn
in
humidity
%
barometer
mb
20260504151026 72 188 3.5 10.4 0.00 0.00 0.00 53 1010.1
20260504150528 72 199 2.6 10.4 0.00 0.00 0.00 56 1010.2
20260504141017 69 164 4.3 9.6 0.00 0.00 0.00 59 1010.6
20260504140511 69 223 3.5 9.6 0.00 0.00 0.00 59 1010.5
20260504130559 65 232 4.3 10.4 0.00 0.00 0.00 64 1010.5
20260504110538 60 214 3.5 7.0 0.00 0.00 0.00 66 1009.9
20260504100532 62 195 3.5 9.6 0.00 0.00 0.00 61 1009.9
20260504081526 62 202 4.3 9.6 0.00 0.00 0.00 57 1010.0
20260504081028 62 194 4.3 7.8 0.00 0.00 0.00 57 1010.0
20260504080525 62 202 3.5 7.0 0.00 0.00 0.00 57 1010.0
20260504050502 61 204 3.5 7.0 0.00 0.00 0.00 53 1011.6
20260504050002 61 181 3.5 8.7 0.00 0.00 0.00 52 1011.6
20260504045600 61 214 3.5 8.7 0.00 0.00 0.00 52 1011.5
20260504045101 61 200 4.3 8.7 0.00 0.00 0.00 52 1011.6
20260504044559 61 202 3.5 7.8 0.00 0.00 0.00 52 1011.7
20260504044100 61 189 3.5 7.8 0.00 0.00 0.00 52 1011.8
20260504043602 61 194 4.3 7.8 0.00 0.00 0.00 52 1011.8
20260504043105 61 169 3.5 7.8 0.00 0.00 0.00 52 1011.9
20260504042558 61 194 3.5 7.8 0.00 0.00 0.00 52 1011.9
20260504042057 61 190 3.5 7.8 0.00 0.00 0.00 52 1011.9
20260504041600 61 203 3.5 7.8 0.00 0.00 0.00 52 1012.0
20260504041100 61 197 4.3 7.8 0.00 0.00 0.00 51 1012.0
20260504040556 61 192 4.3 7.8 0.00 0.00 0.00 51 1012.0
20260504040056 61 167 2.6 7.0 0.00 0.00 0.00 51 1012.1
20260504035556 61 171 3.5 7.0 0.00 0.00 0.00 51 1012.1
20260504035057 61 211 3.5 6.1 0.00 0.00 0.00 51 1012.2
20260504034611 61 192 3.5 6.1 0.00 0.00 0.00 50 1012.2
20260504034055 62 182 2.6 6.1 0.00 0.00 0.00 50 1012.2
20260504033558 62 191 3.5 6.1 0.00 0.00 0.00 50 1012.3
20260504033100 62 172 3.5 6.1 0.00 0.00 0.00 49 1012.3
20260504032555 62 195 3.5 7.8 0.00 0.00 0.00 49 1012.3
20260504032055 62 167 3.5 7.8 0.00 0.00 0.00 48 1012.4
20260504031606 62 195 3.5 7.0 0.00 0.00 0.00 48 1012.4
20260504031054 62 180 2.6 8.7 0.00 0.00 0.00 48 1012.4
20260504030554 62 169 4.3 7.0 0.00 0.00 0.00 48 1012.4
20260504030113 62 167 3.5 7.0 0.00 0.00 0.00 48 1012.4
20260504025554 62 192 3.5 7.0 0.00 0.00 0.00 48 1012.3
20260504025057 63 171 3.5 7.0 0.00 0.00 0.00 48 1012.3
20260504024554 62 191 3.5 6.1 0.00 0.00 0.00 48 1012.2
20260504024055 63 183 2.6 5.2 0.00 0.00 0.00 48 1012.3
20260504023553 63 186 2.6 6.1 0.00 0.00 0.00 48 1012.2
20260504023053 62 198 2.6 6.1 0.00 0.00 0.00 48 1012.3
20260504022552 62 190 2.6 6.1 0.00 0.00 0.00 48 1012.3
20260504022054 62 182 3.5 7.0 0.00 0.00 0.00 48 1012.2
20260504021600 62 186 3.5 7.0 0.00 0.00 0.00 48 1012.1
20260504021054 62 187 3.5 6.1 0.00 0.00 0.00 48 1012.2
20260504020553 62 177 2.6 5.2 0.00 0.00 0.00 48 1012.3
20260504020053 63 165 2.6 3.5 0.00 0.00 0.00 47 1012.4
20260504015552 63 180 1.7 4.3 0.00 0.00 0.00 47 1012.3
20260504015051 63 175 1.7 4.3 0.00 0.00 0.00 47 1012.3
20260504014552 63 180 1.7 3.5 0.00 0.00 0.00 46 1012.3
20260504014052 63 180 2.6 3.5 0.00 0.00 0.00 45 1012.3
20260504013551 64 175 1.7 3.5 0.00 0.00 0.00 45 1012.3
20260504013051 64 173 1.7 3.5 0.00 0.00 0.00 44 1012.4
20260504012552 64 184 1.7 4.3 0.00 0.00 0.00 44 1012.3
20260504012052 65 185 2.6 3.5 0.00 0.00 0.00 44 1012.3
20260504011552 65 186 1.7 5.2 0.00 0.00 0.00 43 1012.3
20260504011051 65 181 2.6 5.2 0.00 0.00 0.00 42 1012.3
20260504010551 65 181 2.6 4.3 0.00 0.00 0.00 42 1012.2
20260504010051 65 184 1.7 5.2 0.00 0.00 0.00 42 1012.2
20260504005551 66 185 2.6 5.2 0.00 0.00 0.00 41 1012.1
20260504005050 66 175 2.6 5.2 0.00 0.00 0.00 41 1012.1
20260504004551 66 187 2.6 6.1 0.00 0.00 0.00 40 1012.1
20260504004049 67 186 2.6 6.1 0.00 0.00 0.00 41 1012.1
20260504003549 67 210 2.6 5.2 0.00 0.00 0.00 40 1012.1
20260504003049 67 186 2.6 6.1 0.00 0.00 0.00 39 1012.2
20260504002549 68 199 2.6 6.1 0.00 0.00 0.00 39 1012.2
20260504002048 68 178 3.5 7.0 0.00 0.00 0.00 38 1012.3
20260504001550 68 187 3.5 7.0 0.00 0.00 0.00 38 1012.3
20260504001047 68 169 3.5 7.8 0.00 0.00 0.00 38 1012.4
20260504000547 68 200 3.5 8.7 0.00 0.00 0.00 38 1012.4
20260504000111 69 191 3.5 8.7 0.00 0.00 0.00 37 1012.5
20260503235546 69 225 3.5 7.8 0.00 0.00 0.00 37 1012.5
20260503235046 69 209 3.5 7.8 0.00 0.00 0.00 37 1012.5
20260503234545 69 194 3.5 10.4 0.00 0.00 0.00 37 1012.5
20260503234045 69 194 4.3 9.6 0.00 0.00 0.00 37 1012.6
20260503233544 69 235 2.6 7.8 0.00 0.00 0.00 37 1012.6
20260503233044 70 187 4.3 8.7 0.00 0.00 0.00 37 1012.7
20260503232547 70 180 4.3 9.6 0.00 0.00 0.00 36 1012.7
20260503232044 70 191 6.1 9.6 0.00 0.00 0.00 35 1012.7
20260503231543 70 208 5.2 10.4 0.00 0.00 0.00 36 1012.7
20260503231042 70 192 5.2 11.3 0.00 0.00 0.00 35 1012.9
20260503230541 70 236 4.3 10.4 0.00 0.00 0.00 35 1013.0
20260503230044 70 200 5.2 10.4 0.00 0.00 0.00 35 1013.1
20260503225540 70 208 1.7 11.3 0.00 0.00 0.00 35 1013.2
20260503225042 70 184 4.3 11.3 0.00 0.00 0.00 35 1013.2
20260503224538 70 193 4.3 10.4 0.00 0.00 0.00 36 1013.2
20260503224040 70 226 5.2 9.6 0.00 0.00 0.00 35 1013.3
20260503223538 70 229 4.3 11.3 0.00 0.00 0.00 36 1013.3
20260503223038 71 193 6.1 11.3 0.00 0.00 0.00 35 1013.4
20260503222537 71 209 4.3 10.4 0.00 0.00 0.00 36 1013.4
20260503222036 71 242 3.5 10.4 0.00 0.00 0.00 36 1013.4
20260503221539 71 232 4.3 13.0 0.00 0.00 0.00 34 1013.5
20260503221037 70 202 4.3 14.8 0.00 0.00 0.00 34 1013.6
20260503220536 70 236 5.2 14.8 0.00 0.00 0.00 35 1013.7
20260503220036 70 189 4.3 9.6 0.00 0.00 0.00 34 1013.6
20260503215535 70 203 4.3 9.6 0.00 0.00 0.00 36 1013.6
20260503215037 70 186 3.5 12.2 0.00 0.00 0.00 35 1013.7
20260503214533 70 185 6.1 12.2 0.00 0.00 0.00 34 1013.9
20260503214032 70 224 4.3 11.3 0.00 0.00 0.00 36 1014.1
20260503213532 70 183 5.2 11.3 0.00 0.00 0.00 36 1014.1
20260503213033 70 190 5.2 13.0 0.00 0.00 0.00 35 1014.2
20260503212534 70 192 6.1 13.0 0.00 0.00 0.00 35 1014.3
20260503212030 70 224 5.2 13.0 0.00 0.00 0.00 36 1014.4
20260503211531 70 123 4.3 8.7 0.00 0.00 0.00 35 1014.5
20260503211029 70 195 3.5 8.7 0.00 0.00 0.00 37 1014.6
20260503210529 70 232 5.2 9.6 0.00 0.00 0.00 35 1014.7
20260503210028 70 186 5.2 9.6 0.00 0.00 0.00 37 1014.8
20260503205526 70 202 3.5 9.6 0.00 0.00 0.00 38 1014.9
20260503205025 70 223 3.5 10.4 0.00 0.00 0.00 36 1015.1
20260503204524 69 212 3.5 11.3 0.00 0.00 0.00 37 1015.1
20260503204023 69 216 4.3 11.3 0.00 0.00 0.00 37 1015.3